Weather Roundup
Issued by NWS Chicago, IL

Home | Current Version | Previous Version | Graphics & Text | Print | Product List | Glossary On
Versions: 1 2 3 4 5 6 7 8 9 10 11 12 13 14 15 16 17 18 19 20 21 22 23 24 25 26 27 28 29 30 31 32 33 34 35 36 37 38 39 40 41 42 43 44 45 46 47 48 49 50
000
NZUS59 KLOT 282003
HRRLOT

CHICAGO AREA WEATHER ROUNDUP
NATIONAL WEATHER SERVICE CHICAGO/ROMEOVILLE IL
300 PM CDT SUN AUG 28 2016

NOTE: "FAIR" INDICATES FEW OR NO CLOUDS BELOW 12,000 FEET WITH NO
SIGNIFICANT WEATHER AND/OR OBSTRUCTIONS TO VISIBILITY.

* THESE STATIONS ARE NOT UNDER NWS QUALITY CONTROL. THEY ALSO MAY NOT
  REPORT WEATHER SUCH AS PRECIPITATION OR FOG.

ILZ005-006-012>014-019>023-282100-
NORTHEAST ILLINOIS

CITY           SKY/WX    TMP DP  RH WIND       PRES   REMARKS
OHARE          CLOUDY    81  70  69 E12       30.19R HX  84
MIDWAY         PTSUNNY   79  68  69 E10       30.20R HX  81
AURORA         CLOUDY    79  69  71 S15G22    30.19R HX  81
LANSING*       CLOUDY    74  70  87 S8        30.21R
JOLIET*        CLOUDY    73  70  92 S6        30.19F
WAUKEGAN       MOSUNNY   74  68  81 E10       30.21R
DUPAGE AIRPORT CLOUDY    86  71  60 SE10G17   30.18R HX  91
WHEELING       CLOUDY    79  69  71 NE8       30.21S HX  81
KANKAKEE*      PTSUNNY   74  69  86 N6        30.20R THUNDER
MORRIS*        TSTM      71  69  93 CALM      30.17F
LEWIS AIRPORT* TSTM      71  69  94 SE7       30.19F
$$

WIZ051-052-058>065-066-070>072-282100-
SOUTHEAST WISCONSIN

CITY           SKY/WX    TMP DP  RH WIND       PRES   REMARKS
MILWAUKEE      MOSUNNY   74  66  76 E10       30.20F
KENOSHA*       SUNNY     77  68  73 E10       30.22R
RACINE*        PTSUNNY   75  66  73 E10       30.22F
WAUKESHA       PTSUNNY   77  64  65 MISG      30.20F
$$

INZ001>003-010>013-019-020-282100-
NORTHWEST INDIANA

CITY           SKY/WX    TMP DP  RH WIND       PRES   REMARKS
GARY*          PTSUNNY   77  72  83 NE7       30.20S
MICHIGAN CITY* NOT AVBL
RENSSELAER*    NOT AVBL
VALPARAISO     LGT RAIN  71  69  93 N3        30.20F
$$

LMZ740>746-282100-
SOUTHERN LAKE MICHIGAN

STATION/POSITION TIME  SKY/WX   TEMP WIND        PRES    VSBY
                                AIR  DIR/SP/G
                 (UTC)          (F)  (DEG/KT/KT) (MB)    (MI)
HARRISON CRIB    1900            75   60/  8/  8   N/A
BURNHAM HARBOR   2000            74   70/  4/  6   N/A
CALUMET HARBOR   1900            74   60/  8/ 10 1022.3R
BURNS HARBOR     1900            76   70/  9/ 11 1023.0R
MICHIGAN CITY    1900            74   40/  8/  9   N/A
$$

ABBREVIATIONS USED IN REMARKS
   TC - TEMPERATURE IN CELSIUS
  WCI - WIND CHILL INDEX
   HX - HEAT INDEX
  VSB - VISIBILITY
$$




USA.gov is the U.S. government's official web portal to all federal, state and local government web resources and services.